Location: Bois de la Silve
(44.4667°N, 6.7833°E)
Time: 10:21:52
(UTC+00:00)

Cosmos 2278 - Pass Details

Date: 14 July 2020
Orbit: 838 x 854 km, 71.1° (Epoch: 06 August)

Event Time Altitude Azimuth Distance (km) Brightness Sun altitude
Rises 02:00:17 0° 334° (NNW) 3,433 7.3 -16.4°
Reaches altitude 10° 02:02:45 10° 336° (NNW) 2,493 6.6 -16.2°
Maximum altitude 02:08:30 84° 65° (ENE) 864 3.8 -15.6°
Drops below altitude 10° 02:14:13 10° 154° (SSE) 2,475 5.9 -15.0°
Sets 02:16:39 0° 155° (SSE) 3,406 6.6 -14.7°
